Terminal Aerodrome Forecast
Issued by NWS Binghamton, NY

Home | Current Version | Previous Version | Text Only | Print | Product List | Glossary On
Versions: 1 2 3 4 5 6 7 8 9 10 11 12 13 14 15 16 17 18 19 20 21 22
000
FTUS41 KBGM 020100 AAA
TAFSYR
TAF AMD
KSYR 020120Z 0201/0224 VRB04KT 1SM -SN OVC015
      TEMPO 0201/0204 3SM -SN OVC025
     FM020400 27008KT P6SM -SHSN OVC025
     FM021200 28015G25KT 1SM -SHSN OVC015
     FM022000 28015G20KT P6SM -SHSN OVC035=

USA.gov is the U.S. government's official web portal to all federal, state and local government web resources and services.